Ash Shahaniyah, Qatar

10:57 PM +03 on June 26, 2017 (GMT +0300)
Ash Shahaniyah

Weather History for WKQIR - April, 2013

Change the Weather History Date:

Friday, April 19, 2013

  Actual Average Record
Temperature  
Mean Temperature 90 °F -  
Max Temperature 100 °F - - ()
Min Temperature 81 °F - - ()
Cooling Degree Days 26    
Growing Degree Days 40 (Base 50)    
Moisture  
Dew Point 60 °F    
Average Humidity 39    
Maximum Humidity 61    
Minimum Humidity 22    
Precipitation  
Precipitation 0.00 in - - ()
Sea Level Pressure  
Sea Level Pressure 29.69 in    
Wind  
Wind Speed 6 mph ()    
Max Wind Speed 18 mph    
Max Gust Speed 23 mph    
Visibility 6.2 miles    
Events Rain    
T = Trace of Precipitation, MM = Missing Value Source: Averaged Metar Reports

Daily Weather History Graph

Daily Weather History Graph

Search for Another Location

Airport or City:

Trip Planner

Search our weather history database for the weather conditions in past years. The results will help you decide how hot, cold, wet, or windy it might be!

Date:

Astronomy

Apr. 19, 2013 Rise Set
Actual Time 5:08 AM +03 5:59 PM +03
Civil Twilight 4:45 AM +03 6:23 PM +03
Nautical Twilight 4:17 AM +03 6:51 PM +03
Astronomical Twilight 3:49 AM +03 7:19 PM +03
Moon 11:59 AM +03 (4/19) 12:30 AM +03 (4/19)
Length of Visible Light 13h 38m
Length of Day
12h 50m
First Quarter, 58% of the Moon is Illuminated
Apr 19
First Quarter
Apr 25
Full
May 2
Last Quarter
May 10
New
May 18
First Quarter

Hourly Weather History & Observations

Time (+03) Temp. Heat Index Dew Point Humidity Pressure Visibility Wind Dir Wind Speed Gust Speed Precip Events Conditions
12:55 AM 82.0 °F 83.0 °F 62.4 °F 51% 29.67 in 6.2 mi West 8.1 mph - N/A   Clear
1:55 AM 82.4 °F 82.7 °F 60.4 °F 47% 29.67 in 6.2 mi West 9.2 mph - N/A   Clear
2:06 AM 82.4 °F 82.9 °F 60.8 °F 48% 29.69 in 6.2 mi West 8.1 mph - N/A   Light Drizzle
2:15 AM 84.2 °F 83.8 °F 59.0 °F 42% 29.66 in 6.2 mi WNW 5.8 mph - N/A   Clear
2:55 AM 84.9 °F 84.4 °F 58.5 °F 41% 29.63 in 6.2 mi ESE 5.8 mph - 0.00 in   Clear
3:55 AM 83.8 °F 83.6 °F 59.2 °F 43% 29.64 in 6.2 mi ENE 4.6 mph - N/A   Clear
4:55 AM 82.2 °F 82.4 °F 59.5 °F 46% 29.69 in 6.2 mi West 4.6 mph - N/A   Clear
5:55 AM 81.5 °F 81.8 °F 59.2 °F 47% 29.70 in 6.2 mi North 3.5 mph - N/A   Clear
6:47 AM 84.2 °F 85.6 °F 64.4 °F 51% 29.75 in 6.2 mi NW 13.8 mph - N/A Rain Light Rain
6:55 AM 82.2 °F 84.9 °F 67.5 °F 61% 29.74 in 6.2 mi North 5.8 mph - 0.00 in Rain Light Rain
7:11 AM 84.2 °F 86.6 °F 66.2 °F 55% 29.74 in 6.2 mi Variable 3.5 mph - N/A   Clear
7:55 AM 84.9 °F 86.6 °F 65.1 °F 51% 29.71 in 6.2 mi ENE 6.9 mph - 0.00 in   Clear
8:55 AM 90.0 °F 90.0 °F 61.3 °F 38% 29.74 in 6.2 mi Calm Calm - N/A   Scattered Clouds
9:55 AM 95.0 °F 94.4 °F 58.8 °F 30% 29.73 in 6.2 mi Calm Calm - N/A   Scattered Clouds
10:55 AM 97.2 °F 96.0 °F 57.4 °F 26% 29.72 in 6.2 mi SSE 4.6 mph - N/A   Mostly Cloudy
11:55 AM 99.5 °F 98.9 °F 57.4 °F 25% 29.70 in 6.2 mi East 3.5 mph - N/A   Overcast
12:21 PM 98.6 °F 97.6 °F 57.2 °F 25% 29.70 in 6.2 mi Calm Calm - N/A   Light Drizzle
12:32 PM 100.4 °F 98.8 °F 55.4 °F 22% 29.69 in 6.2 mi ESE 3.5 mph - N/A   Mostly Cloudy
12:55 PM 100.6 °F 99.1 °F 55.8 °F 22% 29.69 in 6.2 mi Calm Calm - 0.00 in   Mostly Cloudy
1:55 PM 97.7 °F 97.6 °F 59.9 °F 28% 29.68 in 6.2 mi East 11.5 mph - N/A   Mostly Cloudy
2:55 PM 97.9 °F 98.3 °F 60.6 °F 29% 29.65 in 6.2 mi NE 18.4 mph - N/A   Partly Cloudy
3:55 PM 95.0 °F 94.4 °F 58.8 °F 30% 29.64 in 6.2 mi NE 15.0 mph 23.0 mph N/A   Clear
4:55 PM 93.7 °F 92.3 °F 57.4 °F 29% 29.65 in 6.2 mi NNE 16.1 mph - N/A   Clear
5:55 PM 90.9 °F 88.9 °F 55.0 °F 30% 29.66 in 6.2 mi NE 15.0 mph - N/A   Clear
6:55 PM 89.4 °F 87.3 °F 54.0 °F 30% 29.67 in 6.2 mi NE 12.7 mph - N/A   Clear
7:55 PM 87.4 °F 86.5 °F 58.1 °F 37% 29.69 in 6.2 mi NNE 10.4 mph - N/A   Clear
8:55 PM 85.5 °F 85.7 °F 61.5 °F 44% 29.70 in 6.2 mi NE 9.2 mph - N/A   Clear
9:55 PM 84.0 °F 84.7 °F 62.2 °F 48% 29.70 in 6.2 mi North 9.2 mph - N/A   Clear
10:55 PM 82.9 °F 84.0 °F 63.3 °F 51% 29.69 in 6.2 mi NE 3.5 mph - N/A   Clear
11:55 PM 82.8 °F 83.4 °F 62.1 °F 49% 29.68 in 6.2 mi ENE 3.5 mph - N/A   Clear